This is the latest recevied weather packets stored in our database for station/object KD5BIG-13. If no packets are shown the sender has not sent any weather packets the latest 1 day(s).
| Time | Temp. | Humidity | Pressure | Rain* | Wind** | Luminosity | Snow |
|---|---|---|---|---|---|---|---|
| 1778035682 | 23.89° C | 84% | 1013.9 hPa | 0 mm | - | 0 W/m² | - |
| 1778035378 | 23.89° C | 84% | 1013.9 hPa | 0 mm | - | 0 W/m² | - |
| 1778035074 | 23.89° C | 84% | 1014 hPa | 0 mm | - | 0 W/m² | - |
| 1778034772 | 23.89° C | 84% | 1014.1 hPa | 0 mm | - | 0 W/m² | - |
| 1778034468 | 23.89° C | 83% | 1013.8 hPa | 0 mm | - | 0 W/m² | - |
| 1778034166 | 23.89° C | 83% | 1013.9 hPa | 0 mm | - | 0 W/m² | - |
| 1778033864 | 23.89° C | 83% | 1013.8 hPa | 0 mm | - | 0 W/m² | - |
| 1778033560 | 23.89° C | 83% | 1014 hPa | 0 mm | - | 0 W/m² | - |
| 1778033257 | 23.89° C | 83% | 1013.6 hPa | 0 mm | - | 0 W/m² | - |
| 1778032350 | 23.89° C | 83% | 1013.5 hPa | 0 mm | - | 0 W/m² | - |
| 1778032047 | 23.89° C | 82% | 1013.3 hPa | 0 mm | - | 0 W/m² | - |
| 1778031743 | 24.44° C | 82% | 1013.4 hPa | 0 mm | - | 0 W/m² | - |
| 1778031440 | 24.44° C | 82% | 1013.4 hPa | 0 mm | - | 0 W/m² | - |
| 1778031138 | 24.44° C | 82% | 1013.6 hPa | 0 mm | - | 0 W/m² | - |
| 1778030531 | 24.44° C | 82% | 1013.5 hPa | 0 mm | - | 0 W/m² | - |
| 1778030228 | 24.44° C | 82% | 1013.4 hPa | 0 mm | - | 0 W/m² | - |
| 1778029924 | 24.44° C | 82% | 1013.5 hPa | 0 mm | - | 0 W/m² | - |
| 1778029623 | 24.44° C | 82% | 1013.5 hPa | 0 mm | - | 0 W/m² | - |
| 1778029320 | 24.44° C | 82% | 1013.5 hPa | 0 mm | - | 0 W/m² | - |
| 1778028409 | 24.44° C | 83% | 1013.3 hPa | 0 mm | - | 2 W/m² | - |
| 1778028107 | 24.44° C | 82% | 1013.5 hPa | 0 mm | - | 3 W/m² | - |
| 1778027803 | 24.44° C | 82% | 1013.3 hPa | 0 mm | - | 5 W/m² | - |
| 1778026892 | 25° C | 81% | 1013.1 hPa | 0 mm | - | 17 W/m² | - |
| 1778026285 | 25° C | 81% | 1013.1 hPa | 0 mm | - | 15 W/m² | - |
| 1778024468 | 25° C | 79% | 1013.1 hPa | 0 mm | - | 37 W/m² | - |
* Rain latest hour (hover to see other rain measurements)
** Current wind speed in m/s (hover to see current wind gust speed)